Flag for Germany Weather past 2 weeks in Nürburg, Rhineland-Palatinate, Germany

Now
65 °F

Passing clouds.


Feels Like: 65 °F
Forecast: 53 / 62 °F
Wind: No wind

Location: Nuerburg-Barweiler

Current Time: Jul 7, 2015 at 9:04:32 AM

Latest Report: Jul 7, 2015 at 8:00 AM


Visibility: 44 mi

Pressure: 29.94 "Hg (27.90 "Hg at 601m altitude)

Humidity: 69%

Dew point: 54 °F

Location of NürburgLocation

Historic Weather in Nürburg — Graph

°F

Nürburg temperature yesterday

Maximum temperature yesterday: 77 °F (at 6:00 PM)
Minimum temperature yesterday: 54 °F (at 6:00 AM)
Average temperature yesterday: 65 °F

Past Weeks' High & Low Weather Summary

 TemperatureHumidityPressure
High94 °F (Jul 4, 4:00 PM)97% (Jun 22, 10:00 PM)30.25 "Hg (Jun 22, 10:00 PM)
Low44 °F (Jun 23, 2:00 AM)25% (Jul 4, 3:00 PM)29.70 "Hg (Jun 22, 10:00 PM)
Average67 °F64%30.08 "Hg
* Reported Jun 22 7:00 AM — Jul 7 7:00 AM, Nürburg, Weather by CustomWeather, © 2015

Note: Actual official high and low records may vary slightly from our data, if they occured in-between our weather recording intervals... More about our weather records

Advertising

Nürburg weather history for previous 24 hours

 ConditionsComfort  
Time TempWeatherWind HumidityBarometerVisibility
7:00 AM
Tue, Jul 7
64 °FPassing clouds.No wind70%29.96 "Hg37 mi
6:00 AM57 °FPassing clouds.1 mph75%30.00 "Hg37 mi
4:00 AM59 °FClear.1 mph69%30.02 "Hg37 mi
3:00 AM61 °FClear.2 mph67%30.03 "Hg37 mi
2:00 AM59 °FClear.1 mph72%30.05 "Hg34 mi
1:00 AM63 °FClear.1 mph63%30.06 "Hg37 mi
12:00 AM64 °FClear.1 mph59%30.06 "Hg40 mi
11:00 PM
Mon, Jul 6
N/APassing clouds.6 mphN/AN/A17 mi
10:00 PM67 °FClear.2 mph54%30.08 "Hg43 mi
9:00 PM70 °FSunny.3 mph49%30.07 "Hg37 mi
8:00 PM76 °FSunny.2 mph34%30.05 "Hg34 mi
7:00 PM77 °FSunny.2 mph34%30.06 "Hg25 mi
6:00 PM77 °FSunny.2 mph35%30.07 "Hg19 mi
5:00 PMN/APassing clouds.8 mphN/AN/A22 mi
4:00 PM74 °FPassing clouds.2 mph36%30.11 "Hg37 mi
3:00 PM74 °FPassing clouds.3 mph36%30.13 "Hg37 mi
2:00 PM71 °FPassing clouds.2 mph41%30.15 "Hg40 mi
1:00 PM69 °FPassing clouds.2 mph44%30.16 "Hg37 mi
12:00 PM67 °FPassing clouds.5 mph47%30.19 "Hg40 mi
10:00 AM62 °FPassing clouds.3 mph61%30.21 "Hg31 mi
9:00 AM59 °FPassing clouds.3 mph74%30.21 "Hg28 mi
Weather by CustomWeather, © 2015

See weather overviewHow to use our weather pages